[[{"header":{"parameterUnit":"m.s-1","parameterCategory":1,"la1":30.2991,"la2":30.254,"lo1":-89.0895,"lo2":-89.0444,"dy":0.0017,"dx":0.0017,"nx":28,"ny":28,"refTime":"2025-09-01T21:00:00:Z","depth":0,"parameterNumber":2,"parameterNumberName":"U-component_of_WINDS"},"data":[0,0,0,0,0,0,0,0,0,0,0,0,0,0,0,0,0,0,0,0,0,0,0,0,0,0,0,0,0,0,0,0,0,0,0,0,0,0,0,0,0,0,0,0,0,0,0,0,0,0,0,0,0,0,0,0,0,0,-3.1085,-3.1085,0,-3.1052,-3.1052,-3.1051,-3.0941,-3.0939,-3.0936,-3.0934,-3.0902,-3.0904,-3.0905,0,0,0,0,0,0,0,0,0,0,0,0,0,-3.1057,-3.1058,-3.1085,-3.1085,-3.1085,-3.1052,-3.1052,-3.1051,-3.0942,-3.0939,-3.0936,-3.0933,-3.0902,-3.0904,-3.0905,0,0,0,0,0,0,0,0,0,0,0,0,0,-3.1051,-3.1058,-3.1085,-3.1026,-3.102,-3.1052,-3.1052,-3.1051,-3.0942,-3.0939,-3.0935,-3.0931,-3.0901,-3.0904,-3.0906,-3.0993,0,0,-3.0912,-3.0913,0,0,0,0,0,0,0,0,-3.1052,-3.1052,-3.1035,-3.103,-3.1024,-3.0997,-3.103,-3.1032,-3.0943,-3.0972,-3.0934,-3.093,-3.0937,-3.0936,-3.0938,-3.0992,-3.0991,-3.0913,-3.0914,-3.0915,-3.0915,0,0,0,0,0,0,0,-3.1052,-3.1053,-3.1072,-3.1035,-3.1028,-3.1002,-3.0997,-3.103,-3.0976,-3.0969,-3.0961,-3.0959,-3.0933,-3.0936,-3.0937,-3.099,-3.0913,-3.0914,-3.0916,-3.0917,-3.1116,-3.1119,0,0,0,0,0,0,-3.1061,-3.1054,-3.1073,-3.1071,-3.1029,-3.1005,-3.1,-3.1009,-3.0975,-3.0966,-3.0962,-3.0954,-3.0934,-3.0934,-3.0935,-3.1036,-3.0915,-3.0917,-3.0918,-3.1112,-3.1117,-3.1121,0,0,0,0,0,0,-3.106,-3.1063,-3.1075,-3.106,-3.106,-3.101,-3.1021,-3.1011,-3.1013,-3.0969,-3.096,-3.0975,-3.0931,-3.0932,-3.098,-3.1034,-3.0918,-3.092,-3.1107,-3.1113,-3.1119,-3.1239,0,0,0,0,0,0,-3.106,-3.1064,-3.1096,-3.1062,-3.1061,-3.112,-3.1025,-3.1013,-3.1017,-3.1006,-3.0979,-3.0971,-3.0929,-3.0977,-3.0982,-3.1035,-3.0922,-3.1102,-3.111,-3.1117,-3.123,-3.1249,-3.1264,0,0,0,0,0,-3.1059,-3.1131,-3.1098,-3.1101,-3.11,-3.1123,-3.1122,-3.1072,-3.1022,-3.1054,-3.1026,-3.0972,-3.1027,-3.0983,-3.0988,-3.1042,-3.1098,-3.1108,-3.1116,-3.1223,-3.1245,-3.1264,0,0,0,0,0,0,-3.1174,-3.1126,-3.1088,-3.1151,-3.1142,-3.1104,-3.1143,-3.1097,-3.1102,-3.1091,-3.1029,-3.1023,-3.1081,-3.1066,-3.1018,-3.1125,-3.1054,-3.1064,-3.1133,-3.1154,-3.1171,-3.1173,-3.0923,0,0,0,0,0,-3.1206,-3.1228,-3.1185,-3.1245,-3.1242,-3.1194,-3.1202,-3.1164,-3.1152,-3.1147,-3.1122,-3.1114,-3.1129,-3.114,-3.1152,-3.1228,-3.1221,-3.1267,-3.1284,-3.1298,-3.1308,-3.1348,-3.1369,-3.115,-3.115,-3.115,0,0,-3.1273,-3.125,-3.1268,-3.1267,-3.1255,-3.128,-3.1191,-3.1221,-3.1239,-3.1152,-3.1196,-3.1178,-3.1164,-3.1226,-3.1252,-3.1215,-3.1367,-3.131,-3.1321,-3.1323,-3.136,-3.138,-3.1399,-3.1156,-3.1155,-3.1154,0,0,-3.1409,-3.1393,-3.1442,-3.1432,-3.1415,-3.1382,-3.1394,-3.1364,-3.1348,-3.1391,-3.1327,-3.1348,-3.1375,-3.1368,-3.1368,-3.1503,-3.1454,-3.1509,-3.1598,-3.1638,-3.1655,-3.167,-3.1719,-3.1738,-3.1519,-3.1519,-3.1519,0,-3.1495,-3.1529,-3.1473,-3.1507,-3.151,-3.1431,-3.1481,-3.1474,-3.1462,-3.1466,-3.1425,-3.1458,-3.1443,-3.1504,-3.1537,-3.1539,-3.1552,-3.1512,-3.1657,-3.1671,-3.1685,-3.1731,-3.1749,-3.1526,-3.1525,-3.1524,-3.1524,0,-3.1637,-3.1661,-3.1703,-3.1693,-3.17,-3.1742,-3.1693,-3.1707,-3.1669,-3.1642,-3.1687,-3.1666,-3.1673,-3.1684,-3.1647,-3.174,-3.1718,-3.1668,-3.1595,-3.1713,-3.1756,-3.1773,-3.1536,-3.1533,-3.1531,-3.1529,0,0,-3.1843,-3.1802,-3.1818,-3.1813,-3.179,-3.1808,-3.1847,-3.1853,-3.1867,-3.1862,-3.1894,-3.192,-3.1873,-3.1874,-3.1835,-3.187,-3.198,-3.1816,-3.1814,-3.1848,-3.2083,-3.2121,-3.2143,-3.1947,-3.195,-3.1952,-3.2084,0,-3.1972,-3.2036,-3.1987,-3.2059,-3.2082,-3.2009,-3.2043,-3.2033,-3.2009,-3.2026,-3.1999,-3.2018,-3.1955,-3.1955,-3.1986,-3.196,-3.2026,-3.195,-3.1977,-3.1979,-3.1984,-3.2164,-3.2205,-3.233,-3.21,-3.2103,-3.2105,0,-3.2131,-3.2133,-3.2209,-3.2181,-3.2189,-3.222,-3.2222,-3.2239,-3.2227,-3.2206,-3.2208,-3.216,-3.2198,-3.2126,-3.2178,-3.2127,-3.2135,-3.2124,-3.2128,-3.2129,-3.205,-3.2172,-3.2369,-3.2388,-3.213,-3.2128,-3.2127,0,-3.2276,-3.2297,-3.2345,-3.2343,-3.2312,-3.2336,-3.2324,-3.2308,-3.2315,-3.2317,-3.2322,-3.2329,-3.2333,-3.234,-3.2297,-3.2248,-3.2355,-3.2279,-3.234,-3.2342,-3.2366,-3.2366,-3.2569,-3.2371,-3.2371,-3.237,-3.237,0,-3.2426,-3.2475,-3.2409,-3.2439,-3.2492,-3.2436,-3.2491,-3.2471,-3.2458,-3.2484,-3.2421,-3.2446,-3.2386,-3.2406,-3.2372,-3.2421,-3.2423,-3.2409,-3.24,-3.2415,-3.2417,-3.242,-3.2411,-3.2375,-3.2374,-3.2373,-3.2373,0,-3.2596,-3.2554,-3.2601,-3.2568,-3.2561,-3.2602,-3.2574,-3.2601,-3.2572,-3.2605,-3.261,-3.2566,-3.2586,-3.2543,-3.2558,-3.2535,-3.2605,-3.2581,-3.2609,-3.2602,-3.2667,-3.2662,-3.288,-3.2906,-3.2691,-3.2693,-3.2695,0,-3.2695,-3.2731,-3.2701,-3.2714,-3.2705,-3.2726,-3.2733,-3.268,-3.269,-3.2679,-3.2708,-3.2722,-3.2731,-3.2767,-3.2738,-3.2749,-3.2725,-3.2801,-3.2727,-3.2742,-3.2728,-3.2726,-3.273,-3.2817,-3.2819,-3.2821,-3.2823,0,-3.2875,-3.2853,-3.2865,-3.2871,-3.2881,-3.2883,-3.288,-3.2894,-3.2837,-3.2852,-3.2872,-3.2879,-3.2894,-3.291,-3.2914,-3.2903,-3.2855,-3.2847,-3.2862,-3.2878,-3.2893,-3.2887,-3.2652,-3.2842,-3.284,-3.2839,-3.2838,-3.2837,-3.3013,-3.3042,-3.3026,-3.3042,-3.3035,-3.3034,-3.3058,-3.3033,-3.3048,-3.3056,-3.3023,-3.3051,-3.3039,-3.3039,-3.3034,-3.3055,-3.3021,-3.3043,-3.3048,-3.3055,-3.3065,-3.289,-3.3056,-3.3055,-3.3054,-3.3054,-3.3053,0,-3.319,-3.3177,-3.3192,-3.3191,-3.3204,-3.3156,-3.3152,-3.3166,-3.3191,-3.3183,-3.3194,-3.3217,-3.3233,-3.3205,-3.3216,-3.3239,-3.3217,-3.3244,-3.3242,-3.324,-3.3095,-3.3081,-3.3261,-3.3261,-3.3261,-3.3261,-3.3261,-3.3261,-3.3284,-3.3331,-3.3308,-3.3351,-3.3337,-3.3363,-3.3364,-3.3364,-3.3358,-3.3387,-3.3399,-3.3381,-3.3366,-3.3375,-3.3388,-3.338,-3.3387,-3.3422,-3.3406,-3.3271,-3.325,-3.3231,-3.3218,-3.3424,-3.3424,-3.355,-3.3551,-3.3552]},{"header":{"parameterUnit":"m.s-1","parameterCategory":1,"la1":30.2991,"la2":30.254,"lo1":-89.0895,"lo2":-89.0444,"dy":0.0017,"dx":0.0017,"nx":28,"ny":28,"refTime":"2025-09-01T21:00:00:Z","depth":0,"parameterNumber":3,"parameterNumberName":"V-component_of_WINDS"},"data":[0,0,0,0,0,0,0,0,0,0,0,0,0,0,0,0,0,0,0,0,0,0,0,0,0,0,0,0,0,0,0,0,0,0,0,0,0,0,0,0,0,0,0,0,0,0,0,0,0,0,0,0,0,0,0,0,0,0,-0.1657,-0.1657,0,-0.1639,-0.1639,-0.1639,-0.1599,-0.1598,-0.1597,-0.1597,-0.158,-0.158,-0.158,0,0,0,0,0,0,0,0,0,0,0,0,0,-0.1657,-0.1658,-0.1657,-0.1657,-0.1656,-0.1639,-0.1639,-0.1639,-0.1599,-0.1598,-0.1597,-0.1596,-0.158,-0.158,-0.158,0,0,0,0,0,0,0,0,0,0,0,0,0,-0.165,-0.1658,-0.1657,-0.1634,-0.1632,-0.1639,-0.1639,-0.1639,-0.1599,-0.1598,-0.1597,-0.1596,-0.158,-0.158,-0.1581,-0.1608,0,0,-0.1582,-0.1582,0,0,0,0,0,0,0,0,-0.1651,-0.165,-0.1638,-0.1636,-0.1634,-0.162,-0.1633,-0.1628,-0.16,-0.1612,-0.1597,-0.1595,-0.1594,-0.1593,-0.1593,-0.1607,-0.1607,-0.1582,-0.1582,-0.1583,-0.1583,0,0,0,0,0,0,0,-0.1651,-0.1651,-0.165,-0.1638,-0.1635,-0.1626,-0.1623,-0.1632,-0.161,-0.1611,-0.1608,-0.1606,-0.1593,-0.1593,-0.1592,-0.1606,-0.1582,-0.1582,-0.1583,-0.1583,-0.1644,-0.1645,0,0,0,0,0,0,-0.1655,-0.1651,-0.165,-0.1649,-0.1639,-0.1627,-0.1624,-0.1626,-0.161,-0.1606,-0.1607,-0.1604,-0.1592,-0.1592,-0.1591,-0.1624,-0.1583,-0.1583,-0.1583,-0.1643,-0.1644,-0.1646,0,0,0,0,0,0,-0.1655,-0.1655,-0.1651,-0.165,-0.1648,-0.1628,-0.163,-0.1626,-0.1626,-0.1607,-0.1603,-0.1611,-0.1591,-0.1591,-0.1604,-0.1623,-0.1583,-0.1584,-0.1641,-0.1643,-0.1645,-0.1689,0,0,0,0,0,0,-0.1655,-0.1655,-0.1665,-0.165,-0.1649,-0.1664,-0.1631,-0.1626,-0.1626,-0.1622,-0.161,-0.1606,-0.159,-0.1604,-0.1605,-0.1623,-0.1584,-0.1639,-0.1642,-0.1644,-0.1686,-0.1692,-0.1698,0,0,0,0,0,-0.1655,-0.1678,-0.1666,-0.1666,-0.1661,-0.1665,-0.1664,-0.1645,-0.1628,-0.1638,-0.1627,-0.1607,-0.162,-0.1606,-0.1606,-0.1625,-0.1638,-0.1641,-0.1644,-0.1683,-0.1691,-0.1698,0,0,0,0,0,0,-0.1697,-0.1676,-0.1662,-0.1681,-0.1675,-0.1659,-0.1671,-0.1654,-0.1653,-0.165,-0.1626,-0.1623,-0.1641,-0.1634,-0.1618,-0.1651,-0.1626,-0.1629,-0.1656,-0.1663,-0.1669,-0.1671,-0.1584,0,0,0,0,0,-0.1708,-0.1713,-0.1695,-0.1713,-0.1711,-0.1692,-0.1693,-0.1678,-0.1672,-0.1669,-0.1658,-0.1653,-0.1656,-0.1659,-0.166,-0.1684,-0.1682,-0.1697,-0.1703,-0.1708,-0.1712,-0.1725,-0.1733,-0.1656,-0.1656,-0.1655,0,0,-0.1732,-0.1721,-0.1726,-0.1721,-0.1715,-0.1722,-0.169,-0.1698,-0.1703,-0.167,-0.1683,-0.1675,-0.1667,-0.1687,-0.1695,-0.1682,-0.1732,-0.1712,-0.1716,-0.1717,-0.1729,-0.1737,-0.1743,-0.1658,-0.1657,-0.1657,0,0,-0.1778,-0.177,-0.1785,-0.1779,-0.1771,-0.1757,-0.1761,-0.1747,-0.1741,-0.1753,-0.1729,-0.1734,-0.174,-0.1736,-0.1735,-0.178,-0.1762,-0.1781,-0.1813,-0.1826,-0.1833,-0.1838,-0.1856,-0.1862,-0.1784,-0.1784,-0.1785,0,-0.1809,-0.1818,-0.1795,-0.1805,-0.1805,-0.1775,-0.1791,-0.1786,-0.1778,-0.1779,-0.1764,-0.1771,-0.1764,-0.1782,-0.1794,-0.1793,-0.1797,-0.1783,-0.1833,-0.1838,-0.1843,-0.186,-0.1867,-0.1787,-0.1787,-0.1786,-0.1786,0,-0.1857,-0.1863,-0.1876,-0.187,-0.187,-0.1883,-0.1863,-0.1866,-0.1852,-0.184,-0.1854,-0.1844,-0.1844,-0.1847,-0.1832,-0.1864,-0.1856,-0.1837,-0.1812,-0.1853,-0.1869,-0.1875,-0.179,-0.179,-0.1789,-0.1788,0,0,-0.193,-0.1911,-0.1916,-0.1914,-0.1901,-0.1906,-0.1918,-0.1917,-0.1922,-0.1917,-0.1927,-0.1932,-0.1915,-0.1914,-0.1899,-0.191,-0.1949,-0.189,-0.189,-0.1903,-0.1985,-0.2001,-0.2009,-0.1936,-0.1937,-0.1938,-0.1986,0,-0.1976,-0.1995,-0.1975,-0.1998,-0.2005,-0.1976,-0.1987,-0.1981,-0.197,-0.1975,-0.1963,-0.1968,-0.1944,-0.1943,-0.1953,-0.1942,-0.1965,-0.1938,-0.1947,-0.1948,-0.1952,-0.2016,-0.2033,-0.2079,-0.1992,-0.1993,-0.1994,0,-0.2032,-0.203,-0.2054,-0.2041,-0.2043,-0.2053,-0.2051,-0.2055,-0.2048,-0.204,-0.2038,-0.202,-0.2031,-0.2005,-0.2021,-0.2003,-0.2005,-0.2,-0.2002,-0.2003,-0.1975,-0.2022,-0.2092,-0.21,-0.2003,-0.2002,-0.2001,0,-0.2086,-0.2089,-0.2104,-0.2102,-0.2087,-0.2095,-0.2089,-0.208,-0.2082,-0.208,-0.2081,-0.2081,-0.2082,-0.2082,-0.2065,-0.2047,-0.2084,-0.2055,-0.2079,-0.2079,-0.2089,-0.2089,-0.2164,-0.2087,-0.2087,-0.2087,-0.2087,0,-0.214,-0.2156,-0.2129,-0.2138,-0.2156,-0.2133,-0.2151,-0.2142,-0.2135,-0.2143,-0.2118,-0.2126,-0.2101,-0.2107,-0.2093,-0.2109,-0.2109,-0.2104,-0.21,-0.2107,-0.2108,-0.211,-0.2107,-0.2089,-0.2088,-0.2088,-0.2088,0,-0.2204,-0.2186,-0.2201,-0.2185,-0.2182,-0.2196,-0.2182,-0.2191,-0.2179,-0.2189,-0.219,-0.2171,-0.2177,-0.2159,-0.2161,-0.2152,-0.2176,-0.2166,-0.2179,-0.2177,-0.2202,-0.2201,-0.2282,-0.2292,-0.2207,-0.2208,-0.2209,0,-0.2241,-0.2253,-0.2238,-0.2242,-0.2237,-0.2243,-0.2244,-0.2222,-0.2224,-0.2217,-0.2227,-0.223,-0.2232,-0.2242,-0.2229,-0.2231,-0.2222,-0.225,-0.2223,-0.223,-0.2225,-0.2226,-0.2228,-0.2257,-0.2258,-0.2259,-0.226,0,-0.2309,-0.2299,-0.2302,-0.2302,-0.2304,-0.2303,-0.23,-0.2304,-0.228,-0.2284,-0.2289,-0.2291,-0.2293,-0.2297,-0.2296,-0.2291,-0.2272,-0.2268,-0.2274,-0.2282,-0.229,-0.2289,-0.2197,-0.2267,-0.2266,-0.2266,-0.2265,-0.2265,-0.2362,-0.2372,-0.2364,-0.2368,-0.2363,-0.2361,-0.2369,-0.2357,-0.2361,-0.2362,-0.2348,-0.2356,-0.2349,-0.2346,-0.2342,-0.2349,-0.2336,-0.2344,-0.2347,-0.2349,-0.2355,-0.2287,-0.2349,-0.2348,-0.2348,-0.2348,-0.2348,0,-0.2431,-0.2424,-0.2428,-0.2424,-0.2428,-0.2408,-0.2404,-0.2409,-0.2417,-0.2411,-0.2413,-0.242,-0.2424,-0.2411,-0.2413,-0.2421,-0.2413,-0.2423,-0.2423,-0.2423,-0.2365,-0.2361,-0.243,-0.243,-0.243,-0.243,-0.243,-0.243,-0.2467,-0.2483,-0.2473,-0.2487,-0.248,-0.2488,-0.2487,-0.2486,-0.2482,-0.249,-0.2493,-0.2484,-0.2476,-0.2478,-0.2481,-0.2477,-0.248,-0.2494,-0.2487,-0.2434,-0.2426,-0.2419,-0.2415,-0.2494,-0.2494,-0.2544,-0.2545,-0.2545]}]]